Regional Weather Roundup
Issued by NWS

Home | Current Version | Previous Version | Graphics & Text | Print | Product List | Glossary On
Versions: 1 2 3 4 5 6 7 8 9 10 11 12 13 14 15 16 17 18 19 20 21 22 23 24 25 26 27 28 29 30 31 32 33 34 35 36 37 38 39 40 41 42 43 44 45 46 47 48 49 50
000
ASUS43 KMKX 280011
RWRWI

WISCONSIN REGIONAL WEATHER ROUNDUP
NATIONAL WEATHER SERVICE MILWAUKEE/SULLIVAN WI
700 PM CDT THU AUG 27 2015

NOTE: "FAIR" INDICATES FEW OR NO CLOUDS BELOW 12,000 FEET WITH NO
SIGNIFICANT WEATHER AND/OR OBSTRUCTIONS TO VISIBILITY.

WIZ001-002-006>008-014>016-023>028-280100-
NORTHWEST WISCONSIN

CITY           SKY/WX    TMP DP  RH WIND       PRES   REMARKS
SUPERIOR ARPT  CLOUDY    58  50  74 NE5       30.01F
6HR MIN TEMP:  58; 6HR MAX TEMP:  65;

ASHLAND        CLOUDY    65  59  81 CALM      30.03S
6HR MIN TEMP:  65; 6HR MAX TEMP:  77;

HAYWARD        MOCLDY    68  59  73 S5        30.04F
6HR MIN TEMP:  68; 6HR MAX TEMP:  73;

SIREN          CLOUDY    70  59  69 S7        30.03S
6HR MIN TEMP:  70; 6HR MAX TEMP:  75;

CUMBERLAND     CLOUDY    66  59  77 SE3       30.05S
RICE LAKE      CLOUDY    68  58  70 S5        30.06F
6HR MIN TEMP:  68; 6HR MAX TEMP:  73;

CHETEK         CLOUDY   N/A N/A N/A S5        30.05F
LADYSMITH      MOCLDY    69  59  71 S5        30.08S
6HR MIN TEMP:  69; 6HR MAX TEMP:  75;

EAU CLAIRE     CLOUDY    71  57  61 S8        30.04F
6HR MIN TEMP:  71; 6HR MAX TEMP:  76;

MENOMONIE      CLOUDY    70  60  70 SE7       30.03F
6HR MIN TEMP:  70; 6HR MAX TEMP:  76;

NEW RICHMOND   CLOUDY    70  60  70 SE5       30.03S
6HR MIN TEMP:  70; 6HR MAX TEMP:  74;

OSCEOLA        CLOUDY    70  63  77 SE3       30.04F
6HR MIN TEMP:  70; 6HR MAX TEMP:  75;

$$

WIZ003>005-009-010-017-018-280100-
NORTH CENTRAL WISCONSIN

CITY           SKY/WX    TMP DP  RH WIND       PRES   REMARKS
MANITOWISH WTR CLOUDY    67  56  67 SW3       30.07S
6HR MIN TEMP:  67; 6HR MAX TEMP:  74;

ARBOR VITAE    MOCLDY    69  58  66 SW5       30.07F
6HR MIN TEMP:  69; 6HR MAX TEMP:  76;

WOODRUFF       MOCLDY    69  58  66 SW5       30.07F
6HR MIN TEMP:  69; 6HR MAX TEMP:  76;

RHINELANDER    CLOUDY    68  55  63 SW5       30.09F
6HR MIN TEMP:  68; 6HR MAX TEMP:  74;

EAGLE RIVER    CLEAR     67  52  58 SW5       30.08S
6HR MIN TEMP:  67; 6HR MAX TEMP:  73;

LAND O LAKES   CLEAR     68  54  61 CALM      30.08S
6HR MIN TEMP:  68; 6HR MAX TEMP:  74; 6HR PCP:  0.01;

PHILLIPS       CLOUDY    68  58  70 S5        30.06F
6HR MIN TEMP:  68; 6HR MAX TEMP:  73;

TOMAHAWK       CLOUDY    66  59  77 CALM      30.09S
6HR MIN TEMP:  66; 6HR MAX TEMP:  74;

MEDFORD        CLOUDY    67  59  76 S5        30.08F
6HR MIN TEMP:  67; 6HR MAX TEMP:  72;

MERRILL        MOCLDY    69  58  66 CALM      30.09S
6HR MIN TEMP:  69; 6HR MAX TEMP:  74;

$$

WIZ029-030-035-036-043>047-280100-
CENTRAL WISCONSIN

CITY           SKY/WX    TMP DP  RH WIND       PRES   REMARKS
WAUSAU         MOCLDY    70  57  63 SW3       30.07F
6HR MIN TEMP:  70; 6HR MAX TEMP:  75;

MOSINEE        MOCLDY    66  59  77 S3        30.09F
MARSHFIELD     MOCLDY    69  57  65 SW5       30.08F
6HR MIN TEMP:  69; 6HR MAX TEMP:  76;

STEVENS POINT  MOCLDY    67  56  67 S3        30.09F
6HR MIN TEMP:  67; 6HR MAX TEMP:  74;

WAUPACA        MOCLDY    71  58  62 S5        30.09S
6HR MIN TEMP:  71; 6HR MAX TEMP:  79;

WAUTOMA        MOCLDY    73  57  57 CALM      30.10S
6HR MIN TEMP:  73; 6HR MAX TEMP:  78;

WISC RAPIDS    MOCLDY    70  56  61 S5        30.09F
6HR MIN TEMP:  70; 6HR MAX TEMP:  77;

CAMP DOUGLAS   MOCLDY    72  63  73 S6        30.09R
$$

WIZ011>013-019>022-031-037>040-048>050-280100-
NORTHEAST WISCONSIN

CITY           SKY/WX    TMP DP  RH WIND       PRES   REMARKS
ANTIGO         MOCLDY    66  55  67 SW5       30.10S
SHAWANO        CLEAR     72  58  60 CALM      30.09S
6HR MIN TEMP:  71; 6HR MAX TEMP:  77;

OCONTO         CLEAR     67  61  81 CALM      30.08S
6HR MIN TEMP:  66; 6HR MAX TEMP:  72;

STURGEON BAY   CLEAR     64  54  68 S9        30.12F
6HR MIN TEMP:  64; 6HR MAX TEMP:  70;

GREEN BAY      CLEAR     68  59  73 SW5       30.09S
6HR MIN TEMP:  68; 6HR MAX TEMP:  75;

MANITOWOC      CLEAR     63  54  72 MISG      30.11F
6HR MIN TEMP:  63; 6HR MAX TEMP:  70;

APPLETON       MOCLDY    70  55  60 S5        30.08S
CLINTONVILLE   PTCLDY    70  55  60 S3        30.08S
OSHKOSH        MOCLDY    66  58  75 S5        30.10R
6HR MIN TEMP:  66; 6HR MAX TEMP:  74;

$$

WIZ032>034-041-042-053>061-280100-
SOUTHWEST WISCONSIN

CITY           SKY/WX    TMP DP  RH WIND       PRES   REMARKS
LA CROSSE      MOCLDY    74  59  59 S8        30.06F
6HR MIN TEMP:  74; 6HR MAX TEMP:  77;

SPARTA         CLOUDY    71  57  62 S3        30.10S
6HR MIN TEMP:  71; 6HR MAX TEMP:  77;

VIROQUA        MOCLDY    69  60  73 S6        30.11S
6HR MIN TEMP:  69; 6HR MAX TEMP:  74;

BOSCOBEL       MOCLDY    73  59  61 S5        30.10R
6HR MIN TEMP:  73; 6HR MAX TEMP:  79;

PRAIRIE DU CHI CLOUDY    71  56  59 S3        30.09F
6HR MIN TEMP:  71; 6HR MAX TEMP:  77;

PLATTEVILLE    CLOUDY    67  62  82 SW5       30.12R
6HR MIN TEMP:  67; 6HR MAX TEMP:  74;

$$

WIZ056-057-062-063-064-067-068-280100-
SOUTH CENTRAL WISCONSIN

CITY           SKY/WX    TMP DP  RH WIND       PRES   REMARKS
REEDSBURG      PTCLDY    71  59  66 S5        30.10S
6HR MIN TEMP:  71; 6HR MAX TEMP:  77;

BARABOO/DELLS  PTCLDY    70  55  59 SW5       30.10S
6HR MIN TEMP:  70; 6HR MAX TEMP:  77;

LONE ROCK      PTCLDY    71  59  65 S6        30.10S
6HR MIN TEMP:  71; 6HR MAX TEMP:  77;

MINERAL POINT  PTCLDY    70  59  68 CALM      30.12R
MADISON        MOCLDY    71  56  58 SW7       30.10S
6HR MIN TEMP:  71; 6HR MAX TEMP:  75;

MIDDLETON      MOCLDY    71  56  57 S7        30.11F
6HR MIN TEMP:  71; 6HR MAX TEMP:  79;

WATERTOWN      MOCLDY    69  57  66 S7        30.11S
6HR MIN TEMP:  69; 6HR MAX TEMP:  75;

MONROE         MOCLDY    68  59  73 SE3       30.11F
JANESVILLE     PTCLDY    70  55  60 SW8       30.12R
$$

WIZ051-052-058>065-066-070>072-280100-
SOUTHEAST WISCONSIN

CITY           SKY/WX    TMP DP  RH WIND       PRES   REMARKS
MILWAUKEE      MOCLDY    66  53  63 S8        30.12F
6HR MIN TEMP:  66; 6HR MAX TEMP:  72;

WAUKESHA       CLEAR     66  54  63 SE7       30.13S
MILWAUKEE/TIMM CLEAR     68  52  56 S9        30.12F
RACINE         PTCLDY    65  55  70 S10       30.13F
6HR MIN TEMP:  65; 6HR MAX TEMP:  71;

BURLINGTON     MOCLDY    65  53  64 SE6       30.13R
6HR MIN TEMP:  65; 6HR MAX TEMP:  73;

KENOSHA        PTCLDY    66  55  67 SE8       30.13F
6HR MIN TEMP:  66; 6HR MAX TEMP:  74;

FOND DU LAC    MOCLDY    69  57  65 S5        30.10S
6HR MIN TEMP:  69; 6HR MAX TEMP:  75;

SHEBOYGAN      PTCLDY    63  54  72 S8        30.11F
6HR MIN TEMP:  63; 6HR MAX TEMP:  72;

WEST BEND      PTCLDY    64  54  68 CALM      30.11S
JUNEAU         MOCLDY    69  57  66 S7        30.12S
6HR MIN TEMP:  69; 6HR MAX TEMP:  73;

$$

LSZ147-162-280100-
LAKE SUPERIOR

STATION/POSITION TIME  TEMP    WIND        PRES    WAVE
                       AIR SEA DIR/SP/G            HT/PER
                 (UTC) (F)     (DEG/KT/KT) (MB)    (FT/S)
W MID LAKE BUOY  2350   58 58   90/  4/  4 1016.6F   0
DEVILS ISLAND    0000   63     140/  9/ 10 1016.3F
PORT WING        2300   60      30/  4/  6 1016.6S
SAXON HARBOR     2300   69        CALM     1016.3
$$

LMZ867-665-643>646-280100-
LAKE MICHIGAN

STATION/POSITION TIME  TEMP    WIND        PRES    WAVE
                       AIR SEA DIR/SP/G            HT/PER
                 (UTC) (F)     (DEG/KT/KT) (MB)    (FT/S)
CHAMBERS ISLAND  2300   67     140/  4/  8 1019.0S


USA.gov is the U.S. government's official web portal to all federal, state and local government web resources and services.